| time (UTC) | temp F | wind direction | speed MPH | gust MPH | rain 1hr in | rain 24hr in | rain mn in | humidity % | barometer mb |
| 20260509225517 | 73 | 0.0 | 4.0 | 0.00 | 0.69 | 0.36 | 58 | 1008.4 | |
| 20260509224517 | 73 | 293 | 4.0 | 12.0 | 0.00 | 0.70 | 0.36 | 54 | 1008.4 |
| 20260509223517 | 73 | 293 | 2.0 | 7.0 | 0.00 | 0.70 | 0.36 | 54 | 1008.3 |
| 20260509222537 | 73 | 270 | 3.0 | 10.0 | 0.00 | 0.70 | 0.36 | 53 | 1008.2 |
| 20260509221517 | 74 | 225 | 3.0 | 15.0 | 0.00 | 0.70 | 0.36 | 55 | 1008.2 |
| 20260509220517 | 74 | 315 | 4.0 | 10.0 | 0.00 | 0.71 | 0.36 | 52 | 1008.2 |
| 20260509215517 | 73 | 270 | 5.0 | 15.0 | 0.00 | 0.71 | 0.36 | 51 | 1008.2 |
| 20260509214517 | 74 | 270 | 3.0 | 8.0 | 0.00 | 0.71 | 0.36 | 51 | 1008.1 |
| 20260509213516 | 74 | 225 | 1.0 | 7.0 | 0.00 | 0.72 | 0.36 | 52 | 1008.0 |
| 20260509212537 | 74 | 248 | 1.0 | 10.0 | 0.00 | 0.72 | 0.36 | 52 | 1008.1 |
| 20260509211517 | 74 | 0.0 | 8.0 | 0.00 | 0.72 | 0.36 | 52 | 1008.0 | |
| 20260509210517 | 74 | 203 | 1.0 | 10.0 | 0.00 | 0.72 | 0.36 | 53 | 1007.9 |
| 20260509205517 | 74 | 203 | 1.0 | 7.0 | 0.00 | 0.72 | 0.36 | 52 | 1007.9 |
| 20260509204517 | 74 | 0.0 | 2.0 | 0.00 | 0.72 | 0.36 | 52 | 1007.9 | |
| 20260509203517 | 74 | 293 | 1.0 | 11.0 | 0.00 | 0.72 | 0.36 | 51 | 1008.0 |
| 20260509202517 | 73 | 225 | 2.0 | 17.0 | 0.00 | 0.72 | 0.36 | 52 | 1008.1 |
| 20260509201517 | 73 | 0.0 | 4.0 | 0.00 | 0.72 | 0.36 | 52 | 1008.2 | |
| 20260509200517 | 74 | 293 | 1.0 | 9.0 | 0.00 | 0.72 | 0.36 | 53 | 1008.3 |
| 20260509195517 | 74 | 0.0 | 4.0 | 0.00 | 0.72 | 0.36 | 56 | 1008.4 | |
| 20260509194516 | 73 | 0.0 | 6.0 | 0.00 | 0.72 | 0.36 | 58 | 1008.4 | |
| 20260509193516 | 73 | 0.0 | 5.0 | 0.00 | 0.72 | 0.36 | 60 | 1008.4 | |
| 20260509192517 | 72 | 203 | 1.0 | 11.0 | 0.00 | 0.72 | 0.36 | 57 | 1008.6 |
| 20260509191517 | 72 | 0.0 | 1.0 | 0.00 | 0.72 | 0.36 | 60 | 1008.6 | |
| 20260509190517 | 71 | 0.0 | 6.0 | 0.00 | 0.72 | 0.36 | 62 | 1008.5 | |
| 20260509185517 | 71 | 225 | 1.0 | 11.0 | 0.00 | 0.72 | 0.36 | 62 | 1008.7 |
| 20260509184517 | 71 | 225 | 1.0 | 7.0 | 0.00 | 0.72 | 0.36 | 66 | 1008.7 |
| 20260509183537 | 70 | 293 | 1.0 | 9.0 | 0.00 | 0.72 | 0.36 | 66 | 1008.7 |
| 20260509182517 | 70 | 0.0 | 9.0 | 0.00 | 0.72 | 0.36 | 69 | 1008.7 | |
| 20260509181517 | 69 | 0.0 | 5.0 | 0.00 | 0.72 | 0.36 | 69 | 1008.8 | |
| 20260509180517 | 68 | 225 | 2.0 | 11.0 | 0.00 | 0.72 | 0.36 | 71 | 1008.9 |
| 20260509175517 | 68 | 0.0 | 6.0 | 0.00 | 0.72 | 0.36 | 73 | 1009.0 | |
| 20260509174516 | 68 | 0.0 | 7.0 | 0.00 | 0.72 | 0.36 | 71 | 1009.0 | |
| 20260509173517 | 67 | 0.0 | 6.0 | 0.00 | 0.72 | 0.36 | 74 | 1009.0 | |
| 20260509172517 | 67 | 0.0 | 0.0 | 0.00 | 0.72 | 0.36 | 74 | 1009.1 | |
| 20260509171517 | 66 | 0.0 | 7.0 | 0.00 | 0.72 | 0.36 | 75 | 1009.3 | |
| 20260509170517 | 66 | 0.0 | 2.0 | 0.00 | 0.72 | 0.36 | 76 | 1009.4 | |
| 20260509165517 | 66 | 0.0 | 1.0 | 0.00 | 0.72 | 0.36 | 76 | 1009.5 | |
| 20260509164517 | 65 | 0.0 | 0.0 | 0.00 | 0.72 | 0.36 | 79 | 1009.4 | |
| 20260509163517 | 65 | 248 | 1.0 | 6.0 | 0.00 | 0.72 | 0.36 | 77 | 1009.4 |
| 20260509162537 | 64 | 225 | 2.0 | 9.0 | 0.00 | 0.72 | 0.36 | 77 | 1009.4 |
| 20260509161517 | 64 | 270 | 1.0 | 9.0 | 0.00 | 0.72 | 0.36 | 78 | 1009.3 |
| 20260509160517 | 63 | 0.0 | 5.0 | 0.00 | 0.72 | 0.36 | 80 | 1009.2 | |
| 20260509155516 | 62 | 0.0 | 8.0 | 0.00 | 0.72 | 0.36 | 79 | 1009.3 | |
| 20260509154517 | 63 | 0.0 | 9.0 | 0.00 | 0.72 | 0.36 | 83 | 1009.3 | |
| 20260509153517 | 62 | 203 | 1.0 | 12.0 | 0.00 | 0.72 | 0.36 | 81 | 1009.2 |
| 20260509152517 | 61 | 0.0 | 5.0 | 0.00 | 0.72 | 0.36 | 84 | 1009.2 | |
| 20260509151517 | 61 | 0.0 | 1.0 | 0.00 | 0.72 | 0.36 | 84 | 1009.0 | |
| 20260509150517 | 61 | 0.0 | 4.0 | 0.00 | 0.72 | 0.36 | 85 | 1009.1 | |
| 20260509145517 | 60 | 293 | 1.0 | 11.0 | 0.00 | 0.72 | 0.36 | 87 | 1009.0 |
| 20260509144517 | 59 | 0.0 | 8.0 | 0.00 | 0.72 | 0.36 | 87 | 1009.1 | |
| 20260509143517 | 59 | 0.0 | 0.0 | 0.00 | 0.72 | 0.36 | 90 | 1008.9 | |
| 20260509142517 | 59 | 293 | 3.0 | 12.0 | 0.00 | 0.72 | 0.36 | 91 | 1008.9 |
| 20260509141517 | 58 | 0.0 | 0.0 | 0.00 | 0.72 | 0.36 | 93 | 1008.8 | |
| 20260509140516 | 57 | 0.0 | 4.0 | 0.00 | 0.72 | 0.36 | 96 | 1008.8 | |
| 20260509135537 | 57 | 0.0 | 2.0 | 0.00 | 0.72 | 0.36 | 97 | 1008.8 | |
| 20260509134517 | 56 | 0.0 | 0.0 | 0.00 | 0.72 | 0.36 | 97 | 1008.7 | |
| 20260509133517 | 55 | 0.0 | 5.0 | 0.00 | 0.72 | 0.36 | 97 | 1008.7 | |
| 20260509132537 | 55 | 0.0 | 0.0 | 0.00 | 0.72 | 0.36 | 97 | 1008.8 | |
| 20260509131537 | 54 | 0.0 | 4.0 | 0.00 | 0.72 | 0.36 | 97 | 1008.6 | |
| 20260509130517 | 54 | 0.0 | 0.0 | 0.00 | 0.72 | 0.36 | 97 | 1008.6 | |
| 20260509125517 | 54 | 0.0 | 0.0 | 0.00 | 0.72 | 0.36 | 97 | 1008.6 | |
| 20260509124517 | 54 | 0.0 | 0.0 | 0.00 | 0.72 | 0.36 | 97 | 1008.5 | |
| 20260509123517 | 54 | 0.0 | 0.0 | 0.00 | 0.72 | 0.36 | 97 | 1008.4 | |
| 20260509122517 | 53 | 0.0 | 0.0 | 0.00 | 0.72 | 0.36 | 97 | 1008.3 | |
| 20260509121517 | 53 | 0.0 | 0.0 | 0.00 | 0.72 | 0.36 | 97 | 1008.2 | |
| 20260509120517 | 53 | 0.0 | 0.0 | 0.00 | 0.72 | 0.36 | 97 | 1008.4 | |
| 20260509115517 | 52 | 0.0 | 0.0 | 0.00 | 0.72 | 0.36 | 97 | 1008.2 | |
| 20260509114517 | 52 | 0.0 | 0.0 | 0.00 | 0.72 | 0.36 | 96 | 1008.1 | |
| 20260509113517 | 52 | 0.0 | 0.0 | 0.00 | 0.72 | 0.36 | 96 | 1008.2 | |
| 20260509112517 | 52 | 0.0 | 0.0 | 0.00 | 0.72 | 0.36 | 96 | 1008.0 | |
| 20260509111517 | 52 | 0.0 | 0.0 | 0.00 | 0.72 | 0.36 | 96 | 1008.0 | |
| 20260509110517 | 52 | 0.0 | 0.0 | 0.00 | 0.72 | 0.36 | 96 | 1007.8 | |
| 20260509105517 | 52 | 0.0 | 0.0 | 0.00 | 0.72 | 0.36 | 96 | 1007.7 | |
| 20260509104517 | 52 | 0.0 | 0.0 | 0.00 | 0.72 | 0.36 | 96 | 1007.6 | |
| 20260509103517 | 52 | 0.0 | 0.0 | 0.00 | 0.72 | 0.36 | 96 | 1007.6 | |
| 20260509102517 | 53 | 0.0 | 0.0 | 0.00 | 0.72 | 0.36 | 96 | 1007.7 | |
| 20260509101537 | 53 | 0.0 | 0.0 | 0.00 | 0.72 | 0.36 | 96 | 1007.6 | |
| 20260509100517 | 53 | 0.0 | 0.0 | 0.00 | 0.72 | 0.36 | 96 | 1007.7 | |
| 20260509095517 | 53 | 0.0 | 0.0 | 0.00 | 0.72 | 0.36 | 96 | 1007.8 | |
| 20260509094537 | 53 | 0.0 | 0.0 | 0.01 | 0.72 | 0.36 | 96 | 1007.8 | |
| 20260509093517 | 53 | 0.0 | 0.0 | 0.02 | 0.72 | 0.36 | 96 | 1007.7 | |
| 20260509092517 | 53 | 0.0 | 0.0 | 0.03 | 0.72 | 0.36 | 96 | 1007.8 | |
| 20260509091517 | 53 | 0.0 | 0.0 | 0.05 | 0.72 | 0.36 | 96 | 1008.0 | |
| 20260509090517 | 54 | 0.0 | 0.0 | 0.05 | 0.72 | 0.36 | 96 | 1008.0 | |
| 20260509085517 | 54 | 0.0 | 0.0 | 0.06 | 0.72 | 0.36 | 96 | 1007.9 | |
| 20260509084537 | 54 | 0.0 | 0.0 | 0.05 | 0.71 | 0.35 | 96 | 1008.4 | |
| 20260509083517 | 54 | 0.0 | 2.0 | 0.06 | 0.70 | 0.34 | 96 | 1008.6 | |
| 20260509082517 | 54 | 0.0 | 0.0 | 0.05 | 0.69 | 0.33 | 96 | 1008.7 | |
| 20260509081517 | 54 | 0.0 | 0.0 | 0.04 | 0.67 | 0.31 | 96 | 1008.5 | |
| 20260509080517 | 54 | 0.0 | 0.0 | 0.05 | 0.67 | 0.31 | 96 | 1008.5 | |
| 20260509075517 | 54 | 0.0 | 0.0 | 0.04 | 0.66 | 0.30 | 96 | 1008.5 | |
| 20260509074517 | 54 | 0.0 | 0.0 | 0.04 | 0.66 | 0.30 | 96 | 1008.6 | |
| 20260509073517 | 54 | 0.0 | 5.0 | 0.02 | 0.64 | 0.28 | 96 | 1008.7 | |
| 20260509072517 | 54 | 0.0 | 2.0 | 0.02 | 0.64 | 0.28 | 96 | 1008.6 | |
| 20260509071517 | 54 | 0.0 | 1.0 | 0.01 | 0.63 | 0.27 | 96 | 1008.6 | |
| 20260509070517 | 54 | 0.0 | 0.0 | 0.00 | 0.62 | 0.26 | 96 | 1008.9 | |
| 20260509065537 | 54 | 0.0 | 0.0 | 0.01 | 0.62 | 0.26 | 96 | 1009.3 | |
| 20260509064517 | 54 | 0.0 | 2.0 | 0.03 | 0.62 | 0.26 | 96 | 1009.1 | |
| 20260509063537 | 54 | 0.0 | 1.0 | 0.05 | 0.62 | 0.26 | 96 | 1009.4 | |
| 20260509062517 | 54 | 0.0 | 3.0 | 0.07 | 0.62 | 0.26 | 96 | 1009.6 | |
| 20260509061517 | 54 | 0.0 | 0.0 | 0.10 | 0.62 | 0.26 | 96 | 1009.5 | |
| 20260509060517 | 54 | 0.0 | 0.0 | 0.12 | 0.62 | 0.26 | 96 | 1009.3 | |
| 20260509055557 | 54 | 0.0 | 0.0 | 0.12 | 0.61 | 0.25 | 96 | 1009.7 | |
| 20260509054517 | 55 | 0.0 | 2.0 | 0.12 | 0.59 | 0.23 | 96 | 1010.0 | |
| 20260509053517 | 55 | 0.0 | 0.0 | 0.13 | 0.57 | 0.21 | 96 | 1010.0 | |
| 20260509052517 | 55 | 0.0 | 2.0 | 0.14 | 0.55 | 0.19 | 96 | 1010.4 | |
| 20260509051517 | 54 | 0.0 | 0.0 | 0.13 | 0.52 | 0.16 | 96 | 1010.4 | |
| 20260509050517 | 54 | 225 | 1.0 | 3.0 | 0.13 | 0.50 | 0.14 | 96 | 1010.5 |
| 20260509045517 | 54 | 0.0 | 0.0 | 0.14 | 0.49 | 0.13 | 96 | 1010.3 | |
| 20260509044517 | 54 | 0.0 | 0.0 | 0.12 | 0.47 | 0.11 | 96 | 1010.4 | |
| 20260509043517 | 54 | 0.0 | 0.0 | 0.11 | 0.44 | 0.08 | 96 | 1010.3 | |
| 20260509042517 | 54 | 0.0 | 2.0 | 0.12 | 0.41 | 0.05 | 96 | 1010.3 | |
| 20260509041517 | 54 | 0.0 | 4.0 | 0.14 | 0.39 | 0.03 | 95 | 1010.2 | |
| 20260509040517 | 54 | 0.0 | 1.0 | 0.14 | 0.37 | 0.01 | 95 | 1010.1 | |
| 20260509035517 | 54 | 0.0 | 2.0 | 0.12 | 0.35 | 0.35 | 95 | 1010.1 | |
| 20260509034517 | 55 | 0.0 | 0.0 | 0.12 | 0.35 | 0.35 | 95 | 1010.2 | |
| 20260509033537 | 55 | 0.0 | 2.0 | 0.10 | 0.33 | 0.33 | 95 | 1010.7 | |
| 20260509032517 | 55 | 0.0 | 2.0 | 0.07 | 0.29 | 0.29 | 95 | 1010.7 | |
| 20260509031517 | 55 | 0.0 | 4.0 | 0.04 | 0.25 | 0.25 | 95 | 1010.5 | |
| 20260509030517 | 55 | 0.0 | 0.0 | 0.02 | 0.23 | 0.23 | 95 | 1010.3 | |
| 20260509025517 | 55 | 0.0 | 0.0 | 0.05 | 0.23 | 0.23 | 95 | 1010.4 | |
| 20260509024517 | 55 | 0.0 | 0.0 | 0.07 | 0.23 | 0.23 | 95 | 1010.4 | |
| 20260509023517 | 55 | 0.0 | 0.0 | 0.10 | 0.23 | 0.23 | 95 | 1010.5 | |
| 20260509022517 | 55 | 0.0 | 0.0 | 0.12 | 0.22 | 0.22 | 95 | 1010.6 | |
| 20260509021517 | 55 | 0.0 | 2.0 | 0.12 | 0.21 | 0.21 | 95 | 1010.3 | |
| 20260509020517 | 55 | 0.0 | 0.0 | 0.12 | 0.21 | 0.21 | 95 | 1010.5 | |
| 20260509015537 | 55 | 45 | 1.0 | 2.0 | 0.09 | 0.18 | 0.18 | 95 | 1010.6 |
| 20260509014517 | 55 | 0.0 | 1.0 | 0.08 | 0.16 | 0.16 | 94 | 1010.5 | |
| 20260509013517 | 55 | 0.0 | 0.0 | 0.06 | 0.13 | 0.13 | 95 | 1010.4 | |
| 20260509012517 | 55 | 0.0 | 0.0 | 0.03 | 0.10 | 0.10 | 94 | 1010.3 | |
| 20260509011517 | 55 | 0.0 | 0.0 | 0.02 | 0.09 | 0.09 | 94 | 1010.1 | |
| 20260509010517 | 55 | 0.0 | 0.0 | 0.02 | 0.09 | 0.09 | 94 | 1010.2 | |
| 20260509005517 | 55 | 0.0 | 2.0 | 0.02 | 0.09 | 0.09 | 94 | 1010.2 | |
| 20260509004517 | 55 | 0.0 | 2.0 | 0.02 | 0.08 | 0.08 | 94 | 1010.2 | |
| 20260509003517 | 55 | 0.0 | 0.0 | 0.02 | 0.07 | 0.07 | 94 | 1010.1 | |
| 20260509002537 | 55 | 0.0 | 0.0 | 0.03 | 0.07 | 0.07 | 93 | 1009.8 | |
| 20260509001517 | 55 | 0.0 | 0.0 | 0.03 | 0.07 | 0.07 | 93 | 1009.8 | |
| 20260509000517 | 55 | 0.0 | 0.0 | 0.03 | 0.07 | 0.07 | 93 | 1009.7 | |
| 20260508235517 | 56 | 0.0 | 0.0 | 0.04 | 0.07 | 0.07 | 93 | 1010.0 | |
| 20260508234517 | 56 | 0.0 | 0.0 | 0.04 | 0.06 | 0.06 | 93 | 1010.0 | |
| 20260508233517 | 56 | 0.0 | 0.0 | 0.03 | 0.05 | 0.05 | 92 | 1010.0 | |
| 20260508232517 | 56 | 0.0 | 0.0 | 0.02 | 0.04 | 0.04 | 92 | 1010.0 | |
| 20260508231537 | 56 | 0.0 | 0.0 | 0.02 | 0.04 | 0.04 | 92 | 1010.0 | |
| 20260508230517 | 56 | 0.0 | 0.0 | 0.03 | 0.04 | 0.04 | 91 | 1010.0 |